TimeCDT,TemperatureF,Dew PointF,Humidity,Sea Level PressureIn,VisibilityMPH,Wind Direction,Wind SpeedMPH,Gust SpeedMPH,PrecipitationIn,Events,Conditions,WindDirDegrees,DateUTC
12:56 AM,71.1,66.9,87,29.99,5.0,Calm,Calm,-,N/A,,Clear,0,2012-10-15 05:56:00
1:56 AM,71.1,66.0,84,29.97,4.0,Calm,Calm,-,N/A,,Haze,0,2012-10-15 06:56:00
2:56 AM,71.1,66.0,84,29.96,4.0,West,3.5,-,N/A,,Haze,260,2012-10-15 07:56:00
3:56 AM,70.0,66.0,87,29.95,5.0,Calm,Calm,-,N/A,,Clear,0,2012-10-15 08:56:00
4:01 AM,69.8,66.2,88,29.96,1.5,Calm,Calm,-,N/A,,Partly Cloudy,0,2012-10-15 09:01:00
4:03 AM,69.8,66.2,88,29.96,1.0,Calm,Calm,-,N/A,,Mist,0,2012-10-15 09:03:00
4:12 AM,69.8,64.4,83,29.96,1.5,Calm,Calm,-,N/A,,Scattered Clouds,0,2012-10-15 09:12:00
4:19 AM,69.8,64.4,83,29.96,1.2,Calm,Calm,-,N/A,,Scattered Clouds,0,2012-10-15 09:19:00
4:23 AM,69.8,64.4,83,29.96,1.5,Calm,Calm,-,N/A,,Mostly Cloudy,0,2012-10-15 09:23:00
4:28 AM,69.8,64.4,83,29.97,2.0,Calm,Calm,-,N/A,,Mostly Cloudy,0,2012-10-15 09:28:00
4:42 AM,69.8,66.2,88,29.96,4.0,Calm,Calm,-,N/A,,Scattered Clouds,0,2012-10-15 09:42:00
4:56 AM,71.1,66.0,84,29.95,5.0,Calm,Calm,-,N/A,,Haze,0,2012-10-15 09:56:00
5:56 AM,71.1,66.9,87,29.96,5.0,Calm,Calm,-,N/A,,Scattered Clouds,0,2012-10-15 10:56:00
6:20 AM,71.6,66.2,83,29.97,1.8,Calm,Calm,-,0.04,Rain,Light Rain,0,2012-10-15 11:20:00
6:29 AM,71.6,68.0,88,29.98,3.0,Calm,Calm,-,0.05,Rain,Light Rain,0,2012-10-15 11:29:00
6:56 AM,73.0,68.0,84,29.97,5.0,Calm,Calm,-,0.05,Rain-Thunderstorm,Light Thunderstorms and Rain,0,2012-10-15 11:56:00
7:08 AM,71.6,68.0,88,29.98,3.0,Calm,Calm,-,0.02,Rain-Thunderstorm,Thunderstorms and Rain,0,2012-10-15 12:08:00
7:30 AM,73.4,68.0,83,29.98,4.0,Calm,Calm,-,0.02,Thunderstorm,Unknown,0,2012-10-15 12:30:00
7:39 AM,71.6,68.0,88,29.97,3.0,Variable,3.5,-,0.02,,Mostly Cloudy,0,2012-10-15 12:39:00
7:45 AM,71.6,68.0,88,29.97,3.0,Calm,Calm,-,0.02,,Mostly Cloudy,0,2012-10-15 12:45:00
7:56 AM,73.0,69.1,87,29.96,4.0,Calm,Calm,-,0.02,,Mostly Cloudy,0,2012-10-15 12:56:00
8:03 AM,73.4,69.8,88,29.97,4.0,Calm,Calm,-,N/A,,Overcast,0,2012-10-15 13:03:00
8:25 AM,73.4,69.8,88,29.98,2.5,West,5.8,-,N/A,,Overcast,270,2012-10-15 13:25:00
8:56 AM,73.9,69.1,85,29.98,2.5,NNW,4.6,-,N/A,,Haze,340,2012-10-15 13:56:00
9:09 AM,73.4,69.8,88,29.99,3.0,NNW,5.8,-,N/A,,Overcast,330,2012-10-15 14:09:00
9:21 AM,73.4,69.8,88,29.99,4.0,NW,5.8,-,N/A,,Haze,320,2012-10-15 14:21:00